Powrót do katalogu

COSMOS 1867 COOLANT

AktywnyLEO
NORAD 39665·DEBRIS·🇷🇺 Russia

Wystrzelony Jul 10, 1987 z Baikonur Cosmodrome

Loading…

Następne Przeloty (najbliższe 24 godziny)

TLE

Starzejące sięSource: Space-Track

Epoka: Sep 12, 2026, 15:24 UTC

1 39665U 87060AC  26255.64192244  .00000134  00000-0  83927-4 0  9993
2 39665  65.0050 124.6778 0018303 282.5111  77.3927 14.33853314639825

Śledź COSMOS 1867 COOLANT w czasie rzeczywistym z AllMySat

Download on the App Store